Regional Weather Roundup
Issued by NWS

Home | Current Version | Previous Version | Text Only | Print | Product List | Glossary Off
Versions: 1 2 3 4 5 6 7 8 9 10 11 12 13 14 15 16 17 18 19 20 21 22 23 24 25 26 27 28 29 30 31 32 33 34 35 36 37 38 39 40 41 42 43 44 45 46 47 48 49 50

297
ASUS45 KBOU 092307
RWRCO

WEATHER ROUNDUP FOR COLORADO
NATIONAL WEATHER SERVICE DENVER/BOULDER CO
400 PM MST TUE FEB 09 2016

NOTE: "FAIR" INDICATES FEW OR NO CLOUDS BELOW 12000 FEET WITH NO
SIGNIFICANT WEATHER AND/OR OBSTRUCTIONS TO VISIBILITY.

COZ001>005-013-030-031-100000-
...NORTHWEST COLORADO...

CITY           SKY/WX    TMP DP  RH WIND       PRES   REMARKS
CRAIG          MIX PCPN  24  18  77 SW6       30.47S WCI  17
HAYDEN         CLOUDY    27  16  63 CALM      30.46S
MEEKER         SUNNY     35  22  58 NE5       30.45S WCI  31
MOUNT WERNER   NOT AVBL
STEAMBOAT SPGS CLOUDY    30  17  57 CALM      30.46S
WALDEN         SUNNY     23  14  68 W5        30.44S WCI  17
$$

COZ006>008-011-100000-
...WEST CENTRAL VALLEYS...

CITY           SKY/WX    TMP DP  RH WIND       PRES   REMARKS
GRAND JUNCTION SUNNY     44  24  45 CALM      30.44F
MONTROSE       SUNNY     44  22  41 NE3       30.46R
EAGLE          SUNNY     39  19  45 CALM      30.47F
RIFLE          SUNNY     40  20  44 CALM      30.44S
DELTA          SUNNY     48  25  41 CALM      30.45S
NUCLA          SUNNY     46  23  39 CALM      30.45S
$$

COZ017>023-064>068-100000-
...SOUTHWEST COLORADO...

CITY           SKY/WX    TMP DP  RH WIND       PRES   REMARKS
DURANGO        SUNNY     40  22  48 E5        30.37S
CORTEZ         SUNNY     50  27  40 S3        30.37S
PAGOSA SPRINGS SUNNY     49  16  27 S5        30.39R
TELLURIDE      CLOUDY    45  13  27 W17       30.46R
WOLF CREEK PAS SUNNY     36   0  21 NW9G16    30.54R
$$

COZ009-010-012-014-032>034-037-058>063-100000-
...CENTRAL COLORADO...

CITY           SKY/WX    TMP DP  RH WIND       PRES   REMARKS
ASPEN          CLOUDY    39  20  46 NW3       30.44R
BUENA VISTA    SUNNY     49  11  22 NW17      30.37R
COPPER MTN     CLOUDY    34   5  29 NW15      30.51S WCI  24
BERTHOUD PASS  FAIR      23  12  63 N21G37    30.50R WCI   8
COTTONWOOD PAS SUNNY     46 -13   8 N5        30.43S
GUNNISON       CLOUDY    18  10  73 CALM      30.52S
KREMMLING      CLOUDY    21  10  63 CALM      30.51S
LEADVILLE      CLOUDY    39   2  21 N14G22    30.44R
MONARCH PASS   SUNNY     32   9  37 SW7       30.60S WCI  26
SALIDA         NOT AVBL
SUNLIGHT       SUNNY     32  19  59 CALM      30.54R
WILKERSON PASS SUNNY     36   1  23 NW3       30.48S
$$

COZ069>075-100000-
...SAN LUIS VALLEY/SANGRE DE CRISTO MOUNTAINS...

CITY           SKY/WX    TMP DP  RH WIND       PRES   REMARKS
ALAMOSA        SUNNY     45  16  31 SW5       30.38R
LA VETA PASS   SUNNY     39  12  33 CALM      30.44R
SAGUACHE       SUNNY     41  21  45 S7        30.40S
$$

COZ035-036-038>040-100000-
...NORTHERN COLORADO FRONT RANGE...

CITY           SKY/WX    TMP DP  RH WIND       PRES   REMARKS
DENVER INTL AP MOSUNNY   52  20  28 CALM      30.28S
DMNS CITY PARK   N/A     53  15  22 E6        30.28R
AURORA         NOT AVBL
FRONT RANGE AP MOSUNNY   50  21  32 MISG      30.30R
ERIE MUNI ARPT SUNNY     52  22  31 SE8       30.27R
BOULDER MUN AP SUNNY     54  25  32 CALM      30.27R
CENTENNIAL     SUNNY     50  18  28 SE7       30.30R
BROOMFIELD     SUNNY     55  16  21 SE7       30.29S
FORT COLLINS   SUNNY     46  27  46 S8        30.28S
LONGMONT       SUNNY     55  26  32 CALM      30.29R
$$

COZ041-046-047-076>085-087-088-100000-
...PIKES PEAK/PALMER DIVIDE AND SOUTHERN FOOTHILLS...

CITY           SKY/WX    TMP DP  RH WIND       PRES   REMARKS
COLO. SPRINGS  SUNNY     47  19  33 E3        30.34S
A. F. ACADEMY  NOT AVBL
SCHRIEVER AFB  FAIR      43  22  43 W3        30.34R
ELLICOTT       NOT AVBL
FALCON         NOT AVBL
FORT CARSON    NOT AVBL
LIMON          SUNNY     40  26  57 W8        30.29S
MONUMENT HILL  SUNNY     37  21  52 CALM      30.35S
TRINIDAD       SUNNY     56  16  20 E15       30.32R
$$

COZ042>045-048>051-090-091-100000-
...NORTHEAST COLORADO...

CITY           SKY/WX    TMP DP  RH WIND       PRES   REMARKS
GREELEY ARPT   SUNNY     45  30  57 S7        30.28R
AKRON          SUNNY     43  32  65 W10       30.25S
BURLINGTON     SUNNY     43  29  57 NW14      30.25S
WRAY           CLOUDY    47  31  55 NW10      30.23S
STERLING       SUNNY     46  32  57 NW9       30.23S
HOLYOKE        CLOUDY    46  32  57 W9G16     30.21S
FORT MORGAN    SUNNY     47  30  51 N12       30.27S
$$

COZ086-089-092>099-100000-
...SOUTHEAST COLORADO...

CITY           SKY/WX    TMP DP  RH WIND       PRES   REMARKS
PUEBLO         SUNNY     57  19  22 SE8       30.30R
LA JUNTA       MOSUNNY   56  24  29 NE10G29   30.30R HAZE
LAMAR          SUNNY     58  26  29 N16       30.27R
SPRINGFIELD      N/A     55  26  32 N16       30.29S
$$




USA.gov is the U.S. government's official web portal to all federal, state and local government web resources and services.